COSMOS 1275 DEB, 17793

Orbit data source: Space-Track

COSMOS 1275 DEB, 17793 is space debris in LEO originally from a launch on Thu, 04 Jun 1981 UTC launched from the Plesetsk Missile And Space Complex (PKMTR). Debris objects in space refer to the collection of defunct objects orbiting the Earth. Examples of debris include non-operational satellites, rocket bodies, and fragments generated from explosions, collisions, or faulty payload assembly.

Loading next visibility...
Identifier
17793, 1981-053LP
Orbit
LEO
Country
Flag of CISCIS
Related business
Manufacturer
Unknown
Mission
Spacecraft
Bus & Motor
Unknown
Mass
Unknown
Launch date (UTC)
1981-06-04 (45 years ago)
Launch vehicle
Unknown
Launch site
Plesetsk Missile And Space Complex (PKMTR)
Object type
Payload
Rocket body
Debris
Shape & HBR
Unknown shape, 0.1 m
Radar Cross Section
Small (<0.1 m²)

Expand to show TLE details & history
Last TLE update: 1 day ago

TLE from 1 day ago
0 COSMOS 1275 DEB
1 17793U 81053LP  26143.99165963  .00000817  00000-0  13660-2 0  9992
2 17793  83.1484 149.9723 0263181 218.3733 169.8005 13.32568035994018
Epoch: 2026-05-23T23:47Z
TLE epoch observation values (Epoch: 2026-05-23T23:47:59.392Z)
Latitude
28.50749°
Longitude
-84.90217°
Altitude
1,335.419 km
Speed
7.099 km/s
True Right ascension
10h 14m 46s
True Declination
28° 22' 27"
Sunlit
Object was in daylight at epoch
Visualization orbit readout
Latitude
Unknown
Longitude
Unknown
Altitude
Unknown
Speed
Unknown
Apparent Right ascension
Unknown
Apparent Declination
Unknown
Sunlit
N/A
Visualization observer readout
Local Sidereal Time
17:38:18
Azimuth
Unknown
Elevation
Unknown
Doppler factor
Unknown
Orbital elements
Apogee altitude
1,332.003 km
Perigee altitude
936.577 km
Semi-major axis
7,512.427 km
Eccentricity
0.02632
Inclination
83.1484°
RAAN
149.9723°
Arg. of periapsis
218.3733°
True anomaly
170.31776°
Mean anomaly
169.8005°
Eccentric anomaly
170.06077°
Mean motion
3.33329 °/min
Orbital period
108 mins
BSTAR
0.001366
Loading maneuver chart data...
Computing Atmospheric mass density...
Loading historical data...
Loading historical data...
Loading historical data...
Loading historical data...
Loading historical data...
Loading historical data...
Loading historical data...

Documentation

Showing up to 5 results
|